Theta_e
304 297 296 299 312 317 321 325 322 322 327 325 324 333 333 341 352 353 354 354 355 361 362 362 358 358 357 357 356 355 354 354
301 297 302 306 309 317 320 323 326 324 322 328 332 333 338 350 352 352 352 352 359 361 362 362 358 357 358 356 355 355 354 354
296 297 302 306 313 319 319 321 323 325 321 322 333 341 346 348 350 349 350 353 357 362 362 362 359 357 357 357 357 356 354 354
293 297 302 306 312 319 317 321 326 322 321 320 338 341 344 346 346 349 350 355 356 360 361 361 360 358 358 358 357 357 355 355
294 297 300 304 314 317 319 322 324 326 319 322 331 337 342 343 345 348 351 353 354 355 357 360 359 359 358 357 357 357 357 356
293 295 298 305 306 316 325 323 331 328 317 315 327 336 337 342 344 344 348 349 350 352 354 353 354 358 358 357 357 357 355 355
294 296 301 304 302 318 325 323 327 328 326 328 333 333 332 339 339 342 344 343 346 348 348 350 351 353 357 355 355 356 354 355
300 300 301 303 301 311 318 320 323 325 327 330 333 330 332 335 335 337 339 343 345 345 346 346 350 348 350 349 349 350 349 347
301 302 301 301 303 307 315 312 321 321 323 327 331 329 333 334 334 335 337 341 344 344 345 344 344 346 348 348 347 348 347 345
300 300 299 300 302 302 316 314 323 326 326 327 329 330 332 333 334 334 335 337 341 343 343 342 341 343 345 345 346 346 346 344
300 300 298 299 301 300 304 308 326 328 327 326 328 332 334 336 336 336 334 335 337 341 341 341 339 341 341 343 343 344 343 343
299 299 297 298 300 301 304 317 325 327 325 328 328 327 333 335 335 335 336 335 336 338 339 339 338 339 341 341 341 340 341 342
298 299 300 299 300 299 303 316 317 325 326 329 328 328 327 331 335 337 337 336 335 336 337 336 337 338 342 341 340 341 341 341
297 300 302 299 295 304 304 311 313 320 325 326 326 327 328 326 332 338 337 335 336 338 337 337 336 338 342 341 340 340 340 340
295 299 299 297 296 302 302 304 307 316 319 324 326 326 326 328 324 329 336 335 335 336 336 336 337 338 340 338 338 339 338 338
292 297 298 295 296 300 301 302 303 306 317 322 325 327 329 325 325 324 327 334 335 335 336 335 337 335 335 334 334 332 334 335
296 299 297 295 295 300 301 301 301 300 307 317 324 329 330 326 324 322 322 328 332 333 333 334 333 333 332 333 332 333 334 335
296 299 297 296 297 299 300 301 302 303 302 307 319 326 326 323 324 323 323 327 331 332 331 334 337 337 333 331 332 333 335 335
294 297 297 296 294 296 300 301 302 304 304 303 305 313 322 322 323 324 323 326 329 332 332 335 335 335 334 333 332 330 330 331
297 294 288 294 287 293 297 300 301 303 310 302 303 310 321 322 321 323 323 326 326 331 333 334 337 336 335 332 329 330 331 332
Wind_Speed
4 3 2 4 5 9 5 7 3 7 4 3 2 2 10 6 15 14 14 11 12 17 16 17 17 16 15 14 13 13 12 11
4 5 8 5 13 8 3 6 13 7 3 3 3 11 7 16 16 16 15 8 14 16 16 16 17 16 15 14 14 13 13 12
3 6 6 6 5 7 7 3 6 6 5 3 4 11 19 18 15 17 14 8 12 16 16 17 17 16 14 14 13 12 12 12
3 5 5 8 7 4 4 2 2 5 5 0 7 13 15 17 16 13 16 14 11 16 16 15 15 15 14 14 13 12 12 12
4 6 6 3 2 3 1 5 3 5 4 1 6 7 15 13 13 12 12 13 12 12 14 17 16 16 15 13 12 12 12 11
4 3 8 6 2 3 2 4 2 5 5 5 8 10 10 9 9 8 8 9 10 11 12 11 10 17 15 14 14 13 13 12
5 3 7 8 6 1 1 3 5 3 5 3 19 13 11 10 5 6 7 6 8 10 9 10 9 11 15 17 16 15 14 13
8 5 7 10 3 3 5 4 4 2 3 15 21 17 15 15 14 12 12 11 9 9 9 8 9 9 9 8 7 7 6 6
8 11 6 7 10 9 5 4 10 10 15 15 18 18 16 16 18 22 17 10 13 10 10 11 10 6 4 5 4 4 6 6
7 4 3 5 4 2 10 11 13 10 21 16 20 19 20 19 17 14 14 17 14 12 10 10 5 6 6 6 5 5 6 6
6 11 7 3 10 5 9 9 10 11 14 16 18 21 18 20 19 16 14 15 16 14 13 12 9 6 6 7 6 6 4 5
7 7 5 4 6 5 9 6 12 15 16 16 17 20 16 15 17 17 16 16 16 17 16 13 13 9 8 7 7 5 5 7
4 3 8 3 12 7 5 8 13 15 18 16 15 12 20 20 17 18 16 16 17 17 16 15 15 10 8 8 7 7 7 7
7 6 7 4 13 17 5 10 10 16 15 15 16 19 19 16 18 17 15 16 16 15 16 14 13 10 8 6 7 7 7 6
9 6 4 1 9 11 5 8 10 11 15 16 16 11 12 15 14 18 18 16 15 15 16 16 13 8 8 7 7 7 5 6
7 7 3 5 8 10 6 4 3 8 10 16 14 21 18 12 12 12 16 16 16 15 15 14 8 4 2 3 5 4 6 7
12 9 4 5 6 12 10 6 9 7 9 14 15 22 18 9 9 8 8 13 16 16 12 9 5 5 3 7 4 3 5 8
7 5 2 7 10 8 8 8 8 10 8 13 16 18 12 9 9 11 16 17 14 15 10 11 9 7 3 3 2 3 4 5
6 5 4 7 9 7 8 6 6 10 11 4 12 14 12 11 15 11 14 14 14 13 9 9 9 5 3 3 2 1 1 2
5 6 2 3 5 7 10 14 10 9 14 8 11 8 11 15 9 12 9 8 8 9 12 8 8 8 8 5 5 3 2 4
Wind_Direction
86 98 211 263 213 254 253 234 264 328 1 352 161 53 156 138 145 142 153 155 161 161 156 153 156 158 158 156 153 153 150 150
84 245 263 242 279 237 162 228 225 191 266 310 272 149 147 137 139 142 159 155 164 160 159 158 162 164 161 161 161 161 161 162
338 272 257 263 277 199 169 234 156 160 216 231 25 123 134 141 143 148 163 155 160 162 162 165 169 168 166 169 169 171 170 170
269 249 285 291 297 200 208 251 159 155 173 178 116 135 151 151 156 153 158 158 163 167 167 169 171 171 175 177 178 177 178 181
233 274 310 160 14 211 324 285 244 152 127 86 163 182 153 151 148 151 157 164 162 168 176 175 175 179 181 181 180 186 189 191
254 254 271 198 203 286 184 236 328 175 187 212 184 158 137 132 139 143 162 175 169 170 175 177 181 183 185 185 190 194 195 198
247 269 261 296 73 359 337 207 231 196 175 180 144 141 135 129 115 155 184 194 187 179 182 179 177 188 192 195 199 202 202 203
216 232 284 308 338 188 193 174 267 162 76 115 149 157 154 166 174 182 194 199 192 187 181 181 188 191 190 197 202 201 199 202
264 245 232 266 293 185 176 254 229 170 160 146 164 171 171 182 184 185 194 191 193 189 188 189 198 188 190 199 200 202 203 201
274 268 260 249 265 203 175 212 217 181 168 156 172 179 184 187 192 190 187 195 191 192 193 201 200 188 195 196 200 203 210 204
261 289 253 302 253 242 235 257 156 150 181 191 177 186 195 193 190 186 190 195 194 189 196 198 204 193 196 204 198 205 196 199
287 274 253 248 265 171 286 136 155 168 194 202 201 192 192 196 192 192 195 197 191 195 199 196 202 195 199 194 200 192 197 210
302 323 301 225 304 230 197 165 169 188 196 205 213 208 203 190 196 194 201 193 193 198 199 199 200 201 200 202 193 199 208 205
293 357 301 115 267 280 118 153 196 202 193 208 221 211 214 190 193 200 200 195 191 195 199 204 205 202 203 205 196 203 205 198
315 318 277 131 286 283 102 188 200 204 211 212 227 240 224 215 198 193 197 194 193 198 198 200 201 201 202 196 210 202 199 199
280 298 352 321 286 302 314 357 139 245 229 220 210 233 231 213 210 197 195 192 196 196 199 191 192 180 178 207 209 193 211 206
282 270 291 338 303 302 308 342 307 230 233 226 215 228 230 214 212 202 187 186 194 190 193 173 165 172 190 203 184 207 204 206
278 267 273 349 292 273 288 260 234 277 221 217 221 234 227 214 182 195 194 196 187 192 179 183 193 195 180 170 198 203 201 196
231 311 29 341 321 319 293 255 270 261 252 207 212 221 213 200 201 185 205 192 189 188 174 188 174 135 96 83 67 141 213 122
314 42 312 42 282 328 322 314 295 324 339 295 209 204 208 211 196 197 188 166 167 165 179 188 172 185 192 185 186 193 182 110